Location: Calberlah
(52.4230°N, 10.6240°E)
Time: 00:28:52
(UTC+00:00)

ARIANE 5 R/B - Pass Details

Date: 19 May 2025
Orbit: 615 x 647 km, 98.0° (Epoch: 20 June)

Event Time Altitude Azimuth Distance (km) Brightness Sun altitude
Exits shadow 23:01:15 22° 227° (SW) 1,371 4.0 -17.5°
Maximum altitude 23:02:59 29° 266° (W) 1,155 3.9 -17.6°
Drops below altitude 10° 23:06:48 10° 326° (NW) 2,007 6.0 -17.6°
Sets 23:09:15 0° 338° (NNW) 2,924 7.3 -17.6°
